Tracking 19576 objects as of 17-Feb-2019
HD Live streaming from Space Station
objects crossing your sky now

KALAMSAT-V2/PSLV

Track KALAMSAT-V2/PSLV now!
10-day predictions


NORAD ID: 43948
Int'l Code: 2019-006B
Perigee: 452.9 km
Apogee: 459.1 km
Inclination: 98.8 °
Period: 93.6 minutes
Semi major axis: 6826 km
RCS: Unknown
Launch date: January 24, 2019
Source: India (IND)
Launch site: SRIHARIKOTA (SRI)
aabbcc
Your satellite tracking list
Your tracking list is empty




NASA's NSSDC Master Catalog

Two Line Element Set (TLE):
1 43948U 19006B   19047.87186052  .00001040  00000-0  29793-4 0  9991
2 43948  98.7938 326.6323 0004589 164.2039 195.9346 15.39072291  3548
Source of the keplerian elements: AFSPC